TDRS 7

Last updated on Jan. 22, 2020, 4:36 a.m. UTC

1 23613U 95035B   20021.48125073 -.00000209  00000-0  00000+0 0  9993
2 23613  14.2216   5.8354 0029668  18.3254 354.1050  1.00268507 89703
UTC
Height (km)
Latitude
Longitude
Inclination
Orbital Period
UTC large
Height (km)
Speed (km/s)
/
Latitude / Longitude
Inclination (degrees)
Orbital Period (minutes)
Azimuth
Elevation
Range (km)
Doppler Factor
iOS Compass Heading
iOS Angle

Next 30 passes for location: Hong Kong

Rise time Rise Azimuth (degrees) Set time Set Azimuth (degrees) Duration Max altitude (degrees)

No matching passes for this satellites